Weather History for Elizabethton, TN

Change the Weather History Date:

Tuesday, May 14, 2013

  Actual Average (KTRI) Record (KTRI)
Temperature  
Mean Temperature 52 °F 63 °F  
Max Temperature 71 °F 75 °F 88 °F (1957)
Min Temperature 33 °F 51 °F 33 °F (1996)
Degree Days  
Heating Degree Days 13 4  
Month to date heating degree days 68  
Since 1 July heating degree days 4322  
Cooling Degree Days 0 2  
Month to date cooling degree days 16  
Year to date cooling degree days 27  
Growing Degree Days 2 (Base 50)    
Moisture  
Dew Point 41 °F    
Average Humidity 66    
Maximum Humidity 94    
Minimum Humidity 37    
Precipitation  
Precipitation 0.00 in 0.13 in 1.37 in (2012)
Month to date precipitation 1.66  
Year to date precipitation 15.25  
Snow  
Snow 0.00 in 0.00 in - ()
Month to date snowfall 0.0  
Since 1 July snowfall 13.3  
Snow Depth -    
Sea Level Pressure  
Sea Level Pressure 30.17 in    
Wind  
Wind Speed 3 mph (West)    
Max Wind Speed 13 mph    
Max Gust Speed 20 mph    
Visibility 10 miles    
Events      
T = Trace of Precipitation, MM = Missing Value Source: NWS Daily Summary

Daily Weather History Graph

Daily Weather History Graph

Search for Another Location

Airport:

Trip Planner

Search our weather history database for the weather conditions in past years. The results will help you decide how hot, cold, wet, or windy it might be!

Date:

Astronomy

May. 14, 2013 Rise Set
Actual Time 6:22 AM EDT 8:27 PM EDT
Civil Twilight 5:54 AM EDT 8:56 PM EDT
Nautical Twilight 5:19 AM EDT 9:31 PM EDT
Astronomical Twilight 4:41 AM EDT 10:09 PM EDT
Moon 10:01 AM EDT (5/14) No Moon Set
Length of Visible Light 15h 02m
Length of Day
14h 05m
Waxing Crescent, 19% of the Moon is Illuminated
May 14
Waxing Crescent
May 18
First Quarter
May 25
Full
May 31
Last Quarter
Jun 8
New

Hourly Weather History & Observations

Time (EDT) Temp. Windchill Dew Point Humidity Pressure Visibility Wind Dir Wind Speed Gust Speed Precip Events Conditions
12:15 AM 37.4 °F - 35.6 °F 93% 30.21 in 10.0 mi Calm Calm - N/A   Clear
12:35 AM 39.2 °F - 35.6 °F 87% 30.21 in 10.0 mi Calm Calm - N/A   Clear
12:55 AM 37.4 °F - 33.8 °F 87% 30.21 in 10.0 mi Calm Calm - N/A   Clear
1:15 AM 37.4 °F - 33.8 °F 87% 30.20 in 10.0 mi Calm Calm - N/A   Clear
1:35 AM 35.6 °F - 33.8 °F 93% 30.20 in 10.0 mi Calm Calm - N/A   Clear
1:55 AM 35.6 °F - 33.8 °F 93% 30.20 in 10.0 mi Calm Calm - N/A   Clear
2:15 AM 35.6 °F - 33.8 °F 93% 30.20 in 10.0 mi Calm Calm - N/A   Clear
2:35 AM 35.6 °F - 33.8 °F 93% 30.20 in 10.0 mi Calm Calm - N/A   Clear
2:55 AM 35.6 °F - 33.8 °F 93% 30.21 in 10.0 mi Calm Calm - N/A   Clear
3:15 AM 35.6 °F - 33.8 °F 93% 30.21 in 10.0 mi Calm Calm - N/A   Clear
3:35 AM 35.6 °F - 33.8 °F 93% 30.21 in 10.0 mi Calm Calm - N/A   Clear
3:55 AM 35.6 °F - 33.8 °F 93% 30.21 in 10.0 mi Calm Calm - N/A   Clear
4:15 AM 35.6 °F - 33.8 °F 93% 30.21 in 10.0 mi Calm Calm - N/A   Clear
4:35 AM 33.8 °F - 32.0 °F 93% 30.22 in 10.0 mi Calm Calm - N/A   Clear
4:55 AM 35.6 °F - 33.8 °F 93% 30.22 in 10.0 mi Calm Calm - N/A   Clear
5:15 AM 35.6 °F - 32.0 °F 87% 30.22 in 10.0 mi Calm Calm - N/A   Clear
5:35 AM 33.8 °F - 32.0 °F 93% 30.23 in 10.0 mi Calm Calm - N/A   Clear
5:55 AM 35.6 °F - 32.0 °F 87% 30.23 in 10.0 mi Calm Calm - N/A   Clear
6:15 AM 35.6 °F 32.8 °F 32.0 °F 87% 30.23 in 10.0 mi ENE 3.5 mph - N/A   Clear
6:35 AM 37.4 °F 34.9 °F 32.0 °F 81% 30.23 in 10.0 mi NE 3.5 mph - N/A   Clear
6:55 AM 37.4 °F 34.9 °F 32.0 °F 81% 30.24 in 10.0 mi NE 3.5 mph - N/A   Clear
7:15 AM 39.2 °F - 33.8 °F 81% 30.24 in 10.0 mi Calm Calm - N/A   Clear
7:35 AM 41.0 °F - 33.8 °F 76% 30.25 in 10.0 mi Calm Calm - N/A   Clear
7:55 AM 42.8 °F - 33.8 °F 70% 30.26 in 10.0 mi Calm Calm - N/A   Clear
8:15 AM 44.6 °F 43.1 °F 35.6 °F 71% 30.25 in 10.0 mi ENE 3.5 mph - N/A   Clear
8:35 AM 46.4 °F 45.2 °F 35.6 °F 66% 30.25 in 10.0 mi ENE 3.5 mph - N/A   Clear
8:55 AM 46.4 °F 44.3 °F 37.4 °F 71% 30.25 in 10.0 mi East 4.6 mph - N/A   Clear
9:15 AM 48.2 °F - 37.4 °F 66% 30.25 in 10.0 mi Calm Calm - N/A   Clear
9:35 AM 51.8 °F - 37.4 °F 58% 30.24 in 10.0 mi Calm Calm - N/A   Clear
9:55 AM 53.6 °F - 35.6 °F 51% 30.25 in 10.0 mi Calm Calm - N/A   Clear
10:15 AM 55.4 °F - 37.4 °F 51% 30.25 in 10.0 mi Calm Calm - N/A   Clear
10:35 AM 59.0 °F - 35.6 °F 42% 30.24 in 10.0 mi Variable 4.6 mph - N/A   Clear
10:55 AM 60.8 °F - 35.6 °F 39% 30.24 in 10.0 mi SW 6.9 mph - N/A   Clear
11:15 AM 60.8 °F - 35.6 °F 39% 30.23 in 10.0 mi Variable 6.9 mph - N/A   Clear
11:35 AM 62.6 °F - 37.4 °F 39% 30.23 in 10.0 mi SW 6.9 mph - N/A   Clear
11:55 AM 62.6 °F - 37.4 °F 39% 30.22 in 10.0 mi WSW 5.8 mph - N/A   Clear
12:15 PM 62.6 °F - 37.4 °F 39% 30.21 in 10.0 mi SW 9.2 mph - N/A   Clear
12:35 PM 64.4 °F - 39.2 °F 40% 30.21 in 10.0 mi WSW 10.4 mph - N/A   Clear
12:55 PM 64.4 °F - 37.4 °F 37% 30.20 in 10.0 mi West 5.8 mph - N/A   Clear
1:15 PM 66.2 °F - 39.2 °F 37% 30.19 in 10.0 mi SW 9.2 mph - N/A   Clear
1:35 PM 66.2 °F - 39.2 °F 37% 30.19 in 10.0 mi Variable 6.9 mph - N/A   Clear
1:55 PM 66.2 °F - 42.8 °F 43% 30.18 in 10.0 mi SW 10.4 mph - N/A   Clear
2:15 PM 68.0 °F - 42.8 °F 40% 30.17 in 10.0 mi West 8.1 mph - N/A   Clear
2:35 PM 69.8 °F - 44.6 °F 40% 30.16 in 10.0 mi WNW 9.2 mph - N/A   Clear
2:55 PM 69.8 °F - 44.6 °F 40% 30.15 in 10.0 mi WNW 8.1 mph - N/A   Clear
3:15 PM 69.8 °F - 42.8 °F 38% 30.13 in 10.0 mi SW 8.1 mph - N/A   Clear
3:35 PM 69.8 °F - 44.6 °F 40% 30.12 in 10.0 mi WSW 8.1 mph - N/A   Clear
3:55 PM 69.8 °F - 44.6 °F 40% 30.11 in 10.0 mi WSW 11.5 mph 19.6 mph N/A   Clear
4:15 PM 69.8 °F - 44.6 °F 40% 30.10 in 10.0 mi WSW 12.7 mph - N/A   Clear
4:35 PM 71.6 °F - 48.2 °F 43% 30.10 in 10.0 mi West 9.2 mph - N/A   Clear
4:55 PM 69.8 °F - 48.2 °F 46% 30.10 in 10.0 mi WSW 11.5 mph - N/A   Clear
5:15 PM 71.6 °F - 48.2 °F 43% 30.10 in 10.0 mi SW 10.4 mph - N/A   Clear
5:35 PM 71.6 °F - 48.2 °F 43% 30.09 in 10.0 mi WSW 12.7 mph - N/A   Clear
5:55 PM 71.6 °F - 48.2 °F 43% 30.09 in 10.0 mi WSW 8.1 mph - N/A   Clear
6:15 PM 71.6 °F - 48.2 °F 43% 30.08 in 10.0 mi West 9.2 mph - N/A   Clear
6:35 PM 71.6 °F - 48.2 °F 43% 30.08 in 10.0 mi West 8.1 mph - N/A   Clear
6:55 PM 69.8 °F - 50.0 °F 49% 30.07 in 10.0 mi West 5.8 mph - N/A   Partly Cloudy
7:15 PM 69.8 °F - 48.2 °F 46% 30.06 in 10.0 mi WSW 5.8 mph - N/A   Partly Cloudy
7:35 PM 69.8 °F - 48.2 °F 46% 30.06 in 10.0 mi West 6.9 mph - N/A   Partly Cloudy
7:55 PM 69.8 °F - 48.2 °F 46% 30.05 in 10.0 mi West 5.8 mph - N/A   Partly Cloudy
8:15 PM 62.6 °F - 53.6 °F 72% 30.05 in 10.0 mi NW 4.6 mph - N/A   Partly Cloudy
8:35 PM 60.8 °F - 53.6 °F 77% 30.05 in 10.0 mi NW 4.6 mph - N/A   Partly Cloudy
8:55 PM 57.2 °F - 51.8 °F 82% 30.05 in 10.0 mi NNW 3.5 mph - N/A   Scattered Clouds
9:15 PM 60.8 °F - 51.8 °F 72% 30.05 in 10.0 mi Calm Calm - N/A   Scattered Clouds
9:35 PM 57.2 °F - 53.6 °F 88% 30.06 in 10.0 mi Calm Calm - N/A   Partly Cloudy
9:55 PM 57.2 °F - 51.8 °F 82% 30.07 in 10.0 mi Calm Calm - N/A   Clear
10:15 PM 57.2 °F - 51.8 °F 82% 30.07 in 10.0 mi Calm Calm - N/A   Clear
10:35 PM 55.4 °F - 51.8 °F 88% 30.08 in 10.0 mi Calm Calm - N/A   Clear
10:55 PM 55.4 °F - 51.8 °F 88% 30.08 in 10.0 mi Calm Calm - N/A   Clear
11:15 PM 53.6 °F - 51.8 °F 94% 30.08 in 10.0 mi Calm Calm - N/A   Clear
11:35 PM 53.6 °F - 51.8 °F 94% 30.08 in 10.0 mi Calm Calm - N/A   Clear
11:55 PM 53.6 °F - 51.8 °F 94% 30.08 in 10.0 mi Calm Calm - N/A   Clear